Location: Cul de Sac
(18.0387°N, 63.0654°W)
Time: 23:59:38
(UTC+00:00)

X-37B - Visible Passes

Search period start: 22 June 2021 00:00
Search period end: 02 July 2021 00:00
Orbit: 386 x 389 km, 45.0° (Epoch: 10 June)

Date Brightness Start Highest point End Pass type
(mag) Time Alt. Az. Time Alt. Az. Time Alt. Az.
22 Jun 4.1 08:00:03 10° NNE 08:01:15 12° NE 08:02:26 10° ENE visible
23 Jun 3.8 00:26:55 10° WNW 00:28:55 15° NW 00:30:53 10° N visible
23 Jun 0.8 08:36:29 10° NW 08:39:38 70° NE 08:42:46 10° SE visible
23 Jun 2.4 23:27:32 10° WSW 23:30:29 35° NW 23:33:25 10° NNE visible
24 Jun 2.8 07:40:34 23° NNE 07:41:15 25° NE 07:43:57 10° E visible
25 Jun 2.6 08:21:30 17° SSE 08:21:30 17° SSE 08:22:24 10° SSE visible
